CCA1535 ZSHC-ZYHB

Flight info

Callsign CCA1535
Flight time 2h 42m
Altitude 35100
Route SUPAR B221 GOVNI V140 IDNIK V141 ALDAP B221 XDX URBAD W172 IGDEG W173 NIXEP W8 DOBGA W202 UDETI A588 NULRA W206 MAGBI W656 ISLUK W629 LARUN
Aircraft A339/H-SADE1E2E3GHIJ1J3J5M1P2RWXY/LB1

Departure

Time 2026-04-26 05:19
Airport Hangzhou Xiaoshan International Airport (ZSHC)

Arrival

Time 2026-04-26 08:02
Airport Harbin Taiping International Airport (ZYHB)
Time Latitude Longitude Altitude Speed Heading
2026-04-26 04:56 30.24151 120.42697 38 ft 0 kts 162°
2026-04-26 05:07 30.24164 120.42692 38 ft 2 kts 162°
2026-04-26 05:07 30.24179 120.42687 38 ft 2 kts 162°
2026-04-26 05:08 30.24193 120.42681 38 ft 2 kts 162°
2026-04-26 05:08 30.24207 120.42677 38 ft 2 kts 162°
2026-04-26 05:08 30.24222 120.42672 38 ft 2 kts 179°
2026-04-26 05:08 30.24237 120.42674 38 ft 2 kts 202°
2026-04-26 05:09 30.24250 120.42683 38 ft 2 kts 224°
2026-04-26 05:09 30.24258 120.42695 38 ft 0 kts 242°
2026-04-26 05:09 30.24260 120.42699 38 ft 0 kts 243°
2026-04-26 05:12 30.24257 120.42693 38 ft 2 kts 242°
2026-04-26 05:12 30.24247 120.42670 38 ft 4 kts 242°
2026-04-26 05:12 30.24229 120.42632 38 ft 6 kts 242°
2026-04-26 05:12 30.24205 120.42578 38 ft 8 kts 242°
2026-04-26 05:13 30.24181 120.42524 38 ft 3 kts 243°
2026-04-26 05:13 30.24185 120.42495 38 ft 5 kts 307°
2026-04-26 05:13 30.24219 120.42464 38 ft 7 kts 330°
2026-04-26 05:13 30.24269 120.42433 38 ft 8 kts 331°
2026-04-26 05:14 30.24301 120.42400 38 ft 6 kts 294°
2026-04-26 05:14 30.24298 120.42343 38 ft 8 kts 247°
2026-04-26 05:14 30.24269 120.42277 38 ft 9 kts 243°
2026-04-26 05:14 30.24234 120.42197 38 ft 12 kts 243°
2026-04-26 05:15 30.24188 120.42095 38 ft 15 kts 243°
2026-04-26 05:15 30.24135 120.41975 38 ft 17 kts 242°
2026-04-26 05:15 30.24080 120.41849 38 ft 17 kts 243°
2026-04-26 05:15 30.24024 120.41722 38 ft 18 kts 243°
2026-04-26 05:16 30.23965 120.41590 38 ft 18 kts 243°
2026-04-26 05:16 30.23907 120.41460 38 ft 18 kts 243°
2026-04-26 05:16 30.23849 120.41327 38 ft 18 kts 243°
2026-04-26 05:16 30.23789 120.41192 38 ft 18 kts 243°
2026-04-26 05:17 30.23731 120.41061 38 ft 15 kts 243°
2026-04-26 05:17 30.23693 120.40976 38 ft 7 kts 243°
2026-04-26 05:17 30.23689 120.40941 38 ft 4 kts 289°
2026-04-26 05:17 30.23717 120.40906 38 ft 6 kts 328°
2026-04-26 05:18 30.23766 120.40877 38 ft 8 kts 335°
2026-04-26 05:18 30.23819 120.40863 38 ft 6 kts 11°
2026-04-26 05:18 30.23853 120.40906 38 ft 8 kts 63°
2026-04-26 05:18 30.23902 120.41015 38 ft 35 kts 62°
2026-04-26 05:19 30.24124 120.41518 38 ft 101 kts 62°
2026-04-26 05:19 30.24535 120.42446 39 ft 155 kts 63°
2026-04-26 05:19 30.25057 120.43641 424 ft 167 kts 62°
2026-04-26 05:19 30.25558 120.44801 1105 ft 161 kts 62°
2026-04-26 05:20 30.26065 120.45943 1737 ft 159 kts 61°
2026-04-26 05:20 30.26553 120.47039 2266 ft 154 kts 61°
2026-04-26 05:20 30.27044 120.48145 2728 ft 154 kts 61°
2026-04-26 05:20 30.27538 120.49255 3167 ft 156 kts 62°
2026-04-26 05:21 30.28042 120.50397 3487 ft 167 kts 61°
2026-04-26 05:21 30.28602 120.51661 3782 ft 183 kts 61°
2026-04-26 05:21 30.29202 120.53021 4087 ft 199 kts 61°
2026-04-26 05:21 30.29862 120.54515 4403 ft 217 kts 61°
2026-04-26 05:22 30.30575 120.56133 4767 ft 236 kts 61°
2026-04-26 05:22 30.31354 120.57902 5168 ft 254 kts 61°
2026-04-26 05:22 30.32074 120.59824 5564 ft 274 kts 76°
2026-04-26 05:22 30.32024 120.62078 6148 ft 287 kts 106°
2026-04-26 05:23 30.31057 120.64063 6936 ft 289 kts 134°
2026-04-26 05:23 30.29416 120.65372 7699 ft 291 kts 155°
2026-04-26 05:23 30.27583 120.66392 8430 ft 296 kts 156°
2026-04-26 05:23 30.25709 120.67428 9132 ft 300 kts 155°
2026-04-26 05:24 30.23825 120.68494 9609 ft 303 kts 155°
2026-04-26 05:24 30.21928 120.69589 9830 ft 305 kts 154°
2026-04-26 05:24 30.20029 120.70752 9840 ft 306 kts 147°
2026-04-26 05:24 30.18447 120.72359 9836 ft 305 kts 129°
2026-04-26 05:25 30.17242 120.74382 9837 ft 305 kts 121°
2026-04-26 05:25 30.16144 120.76488 9841 ft 305 kts 120°
2026-04-26 05:25 30.15048 120.78603 9830 ft 305 kts 121°
2026-04-26 05:25 30.13939 120.80698 9851 ft 305 kts 123°
2026-04-26 05:26 30.12483 120.82485 9829 ft 305 kts 148°
2026-04-26 05:26 30.10557 120.83429 9836 ft 303 kts 166°
2026-04-26 05:26 30.08500 120.84034 9843 ft 303 kts 165°
2026-04-26 05:26 30.06625 120.85155 9820 ft 304 kts 136°
2026-04-26 05:27 30.05477 120.87172 9831 ft 304 kts 107°
2026-04-26 05:27 30.05268 120.89576 9967 ft 306 kts 78°
2026-04-26 05:27 30.06036 120.91856 10612 ft 305 kts 53°
2026-04-26 05:27 30.07326 120.93845 11135 ft 315 kts 49°
2026-04-26 05:28 30.08703 120.95893 11536 ft 331 kts 49°
2026-04-26 05:28 30.10115 120.98032 12203 ft 338 kts 50°
2026-04-26 05:28 30.11533 121.00208 12959 ft 342 kts 50°
2026-04-26 05:28 30.12952 121.02399 13669 ft 346 kts 49°
2026-04-26 05:29 30.14406 121.04654 14378 ft 351 kts 49°
2026-04-26 05:29 30.15867 121.06921 15093 ft 354 kts 49°
2026-04-26 05:29 30.17341 121.09213 15807 ft 358 kts 49°
2026-04-26 05:29 30.18836 121.11540 16567 ft 362 kts 49°
2026-04-26 05:30 30.20353 121.13899 17246 ft 366 kts 49°
2026-04-26 05:30 30.21865 121.16255 17904 ft 370 kts 48°
2026-04-26 05:30 30.23397 121.18641 18624 ft 374 kts 48°
2026-04-26 05:30 30.24962 121.21078 19290 ft 378 kts 49°
2026-04-26 05:31 30.26474 121.23586 19897 ft 385 kts 51°
2026-04-26 05:31 30.27948 121.26172 20538 ft 389 kts 52°
2026-04-26 05:31 30.29443 121.28822 21142 ft 394 kts 52°
2026-04-26 05:31 30.30949 121.31494 21747 ft 398 kts 52°
2026-04-26 05:32 30.32451 121.34157 22326 ft 401 kts 52°
2026-04-26 05:32 30.33990 121.36877 22931 ft 404 kts 51°
2026-04-26 05:32 30.35612 121.39513 23490 ft 406 kts 47°
2026-04-26 05:32 30.37412 121.42069 24058 ft 407 kts 44°
2026-04-26 05:33 30.39287 121.44551 24620 ft 410 kts 43°
2026-04-26 05:33 30.41188 121.47025 25142 ft 412 kts 41°
2026-04-26 05:33 30.43239 121.49332 25653 ft 411 kts 35°
2026-04-26 05:33 30.45492 121.51382 26161 ft 410 kts 29°
2026-04-26 05:34 30.47850 121.53165 26654 ft 411 kts 26°
2026-04-26 05:34 30.50296 121.54927 27151 ft 413 kts 26°
2026-04-26 05:34 30.52776 121.56700 27596 ft 417 kts 26°
2026-04-26 05:34 30.55256 121.58476 28007 ft 421 kts 26°
2026-04-26 05:35 30.57736 121.60259 28423 ft 425 kts 26°
2026-04-26 05:35 30.60252 121.62073 28870 ft 427 kts 26°
2026-04-26 05:35 30.62793 121.63910 29310 ft 430 kts 26°
2026-04-26 05:35 30.65355 121.65764 29714 ft 433 kts 26°
2026-04-26 05:36 30.67930 121.67630 30105 ft 436 kts 26°
2026-04-26 05:36 30.70488 121.69486 30495 ft 438 kts 26°
2026-04-26 05:36 30.73107 121.71388 30886 ft 440 kts 26°
2026-04-26 05:36 30.75694 121.73269 31261 ft 442 kts 26°
2026-04-26 05:37 30.78319 121.75177 31658 ft 444 kts 26°
2026-04-26 05:37 30.80922 121.77071 32013 ft 446 kts 26°
2026-04-26 05:37 30.83586 121.79009 32378 ft 448 kts 26°
2026-04-26 05:37 30.86210 121.80921 32713 ft 450 kts 26°
2026-04-26 05:38 30.88875 121.82864 33022 ft 452 kts 25°
2026-04-26 05:38 30.91540 121.84807 33077 ft 453 kts 26°
2026-04-26 05:38 30.96901 121.88721 33088 ft 452 kts 25°
2026-04-26 05:39 31.02219 121.92609 33091 ft 451 kts 25°
2026-04-26 05:39 31.07541 121.96504 33094 ft 451 kts 26°
2026-04-26 05:40 31.12846 122.00393 33093 ft 452 kts 25°
2026-04-26 05:40 31.18173 122.04303 33093 ft 451 kts 25°
2026-04-26 05:41 31.23494 122.08215 33093 ft 451 kts 25°
2026-04-26 05:41 31.28796 122.12116 33092 ft 451 kts 25°
2026-04-26 05:42 31.34106 122.16029 33095 ft 451 kts 25°
2026-04-26 05:42 31.39439 122.19965 33093 ft 451 kts 25°
2026-04-26 05:43 31.44736 122.23879 33094 ft 451 kts 25°
2026-04-26 05:43 31.50024 122.27795 33095 ft 451 kts 25°
2026-04-26 05:44 31.55407 122.31532 33093 ft 444 kts 18°
2026-04-26 05:44 31.61219 122.33638 33100 ft 431 kts
2026-04-26 05:45 31.67137 122.33878 33095 ft 420 kts 349°
2026-04-26 05:45 31.72748 122.32393 33093 ft 411 kts 336°
2026-04-26 05:46 31.78042 122.29866 33091 ft 410 kts 332°
2026-04-26 05:46 31.83271 122.27222 33094 ft 411 kts 334°
2026-04-26 05:47 31.88643 122.24784 33094 ft 411 kts 335°
2026-04-26 05:47 31.93970 122.22382 33092 ft 411 kts 335°
2026-04-26 05:48 31.99350 122.19952 33092 ft 411 kts 335°
2026-04-26 05:48 32.04691 122.17534 33093 ft 412 kts 335°
2026-04-26 05:49 32.12735 122.13883 33095 ft 412 kts 335°
2026-04-26 05:50 32.18086 122.11453 33093 ft 413 kts 334°
2026-04-26 05:50 32.23449 122.09013 33091 ft 413 kts 335°
2026-04-26 05:51 32.28862 122.06546 33140 ft 416 kts 335°
2026-04-26 05:51 32.31546 122.05321 33479 ft 418 kts 334°
2026-04-26 05:51 32.34278 122.04076 33904 ft 418 kts 335°
2026-04-26 05:51 32.37003 122.02831 34240 ft 420 kts 335°
2026-04-26 05:52 32.39726 122.01586 34508 ft 421 kts 335°
2026-04-26 05:52 32.42441 122.00345 34748 ft 424 kts 335°
2026-04-26 05:52 32.45215 121.99075 35004 ft 425 kts 335°
2026-04-26 05:52 32.47993 121.97804 35326 ft 425 kts 335°
2026-04-26 05:53 32.50745 121.96544 35648 ft 425 kts 335°
2026-04-26 05:53 32.53491 121.95286 35957 ft 424 kts 335°
2026-04-26 05:53 32.56240 121.94025 36315 ft 424 kts 335°
2026-04-26 05:53 32.59005 121.92757 36709 ft 423 kts 335°
2026-04-26 05:54 32.61753 121.91493 37109 ft 423 kts 335°
2026-04-26 05:54 32.64498 121.90231 37474 ft 422 kts 335°
2026-04-26 05:54 32.67212 121.88984 37825 ft 422 kts 335°
2026-04-26 05:54 32.69946 121.87725 38163 ft 421 kts 335°
2026-04-26 05:55 32.72712 121.86452 38484 ft 421 kts 335°
2026-04-26 05:55 32.75456 121.85187 38800 ft 421 kts 335°
2026-04-26 05:55 32.78166 121.83938 39066 ft 421 kts 335°
2026-04-26 05:56 32.83646 121.81409 39092 ft 421 kts 335°
2026-04-26 05:56 32.89080 121.78897 39097 ft 421 kts 335°
2026-04-26 05:57 32.94532 121.76372 39100 ft 421 kts 335°
2026-04-26 05:57 32.99987 121.73845 39098 ft 420 kts 335°
2026-04-26 05:58 33.05441 121.71311 39098 ft 420 kts 335°
2026-04-26 05:58 33.10901 121.68773 39101 ft 420 kts 335°
2026-04-26 05:59 33.16342 121.66239 39099 ft 420 kts 335°
2026-04-26 05:59 33.21793 121.63696 39096 ft 420 kts 335°
2026-04-26 06:00 33.27232 121.61114 39088 ft 419 kts 334°
2026-04-26 06:00 33.32605 121.58349 39090 ft 419 kts 333°
2026-04-26 06:01 33.37968 121.55574 39094 ft 419 kts 333°
2026-04-26 06:01 33.43306 121.52820 39096 ft 419 kts 333°
2026-04-26 06:02 33.48693 121.50040 39096 ft 419 kts 333°
2026-04-26 06:02 33.54036 121.47281 39085 ft 419 kts 333°
2026-04-26 06:03 33.59413 121.44497 39088 ft 419 kts 333°
2026-04-26 06:03 33.64734 121.41742 39082 ft 419 kts 333°
2026-04-26 06:04 33.70127 121.39052 39081 ft 420 kts 335°
2026-04-26 06:04 33.75608 121.36491 39082 ft 420 kts 335°
2026-04-26 06:05 33.81073 121.33927 39086 ft 420 kts 334°
2026-04-26 06:05 33.86476 121.31377 39081 ft 419 kts 334°
2026-04-26 06:06 33.91929 121.28795 39077 ft 420 kts 334°
2026-04-26 06:06 33.97349 121.26223 39078 ft 420 kts 334°
2026-04-26 06:07 34.02820 121.23619 39074 ft 420 kts 334°
2026-04-26 06:07 34.08257 121.21031 39081 ft 420 kts 334°
2026-04-26 06:08 34.13675 121.18449 39076 ft 420 kts 334°
2026-04-26 06:08 34.19133 121.15842 39076 ft 420 kts 334°
2026-04-26 06:09 34.24539 121.13256 39071 ft 420 kts 334°
2026-04-26 06:09 34.29997 121.10642 39071 ft 419 kts 334°
2026-04-26 06:10 34.35419 121.08041 39077 ft 419 kts 334°
2026-04-26 06:10 34.40831 121.05444 39072 ft 420 kts 334°
2026-04-26 06:11 34.46255 121.02834 39067 ft 420 kts 334°
2026-04-26 06:11 34.51700 121.00212 39070 ft 419 kts 334°
2026-04-26 06:12 34.57126 120.97595 39070 ft 419 kts 334°
2026-04-26 06:12 34.62519 120.94991 39065 ft 419 kts 334°
2026-04-26 06:13 34.67951 120.92364 39067 ft 419 kts 334°
2026-04-26 06:13 34.73364 120.89742 39065 ft 419 kts 334°
2026-04-26 06:14 34.78788 120.87110 39063 ft 418 kts 334°
2026-04-26 06:14 34.84208 120.84476 39064 ft 419 kts 334°
2026-04-26 06:15 34.89611 120.81849 39064 ft 419 kts 334°
2026-04-26 06:15 34.95027 120.79210 39062 ft 419 kts 334°
2026-04-26 06:16 35.00446 120.76566 39061 ft 419 kts 334°
2026-04-26 06:16 35.05893 120.73902 39060 ft 419 kts 334°
2026-04-26 06:17 35.11300 120.71253 39060 ft 419 kts 334°
2026-04-26 06:17 35.16735 120.68597 39061 ft 419 kts 334°
2026-04-26 06:18 35.22122 120.65987 39061 ft 419 kts 334°
2026-04-26 06:18 35.27573 120.63341 39060 ft 419 kts 334°
2026-04-26 06:19 35.32998 120.60699 39055 ft 420 kts 334°
2026-04-26 06:19 35.38377 120.58078 39051 ft 420 kts 334°
2026-04-26 06:20 35.43852 120.55434 39057 ft 420 kts 334°
2026-04-26 06:20 35.49300 120.52801 39050 ft 420 kts 334°
2026-04-26 06:21 35.54706 120.50173 39058 ft 420 kts 334°
2026-04-26 06:21 35.60149 120.47520 39046 ft 420 kts 334°
2026-04-26 06:22 35.65579 120.44867 39047 ft 421 kts 334°
2026-04-26 06:22 35.71044 120.42193 39046 ft 421 kts 334°
2026-04-26 06:23 35.76476 120.39529 39052 ft 421 kts 334°
2026-04-26 06:23 35.81904 120.36862 39044 ft 421 kts 334°
2026-04-26 06:24 35.87338 120.34223 39043 ft 422 kts 336°
2026-04-26 06:24 35.93230 120.33114 39036 ft 437 kts 355°
2026-04-26 06:25 35.99329 120.34579 39040 ft 456 kts 14°
2026-04-26 06:25 36.02172 120.36295 39044 ft 465 kts 25°
2026-04-26 06:25 36.04814 120.38693 39040 ft 474 kts 34°
2026-04-26 06:26 36.09899 120.43789 39044 ft 467 kts 26°
2026-04-26 06:26 36.15669 120.47232 39040 ft 453 kts 11°
2026-04-26 06:27 36.21724 120.48753 39030 ft 440 kts 358°
2026-04-26 06:27 36.27817 120.49056 39036 ft 437 kts 355°
2026-04-26 06:28 36.33914 120.49625 39027 ft 444 kts
2026-04-26 06:28 36.40019 120.51058 39027 ft 450 kts
2026-04-26 06:29 36.46086 120.53306 39026 ft 455 kts 11°
2026-04-26 06:29 36.52099 120.55592 39025 ft 451 kts
2026-04-26 06:30 36.58205 120.57136 39017 ft 446 kts
2026-04-26 06:30 36.64333 120.58224 39007 ft 446 kts
2026-04-26 06:31 36.70494 120.59283 39007 ft 445 kts
2026-04-26 06:31 36.76656 120.60345 39003 ft 445 kts
2026-04-26 06:32 36.82769 120.61404 39005 ft 445 kts
2026-04-26 06:32 36.88915 120.62472 39001 ft 446 kts
2026-04-26 06:33 36.95083 120.63557 38999 ft 447 kts
2026-04-26 06:33 37.01222 120.64704 38995 ft 447 kts
2026-04-26 06:34 37.07401 120.65865 38994 ft 447 kts
2026-04-26 06:34 37.13566 120.67017 38998 ft 448 kts
2026-04-26 06:35 37.19714 120.68169 39001 ft 447 kts
2026-04-26 06:35 37.25880 120.69325 39006 ft 447 kts
2026-04-26 06:36 37.32026 120.70477 39011 ft 447 kts
2026-04-26 06:36 37.38164 120.71631 39015 ft 447 kts
2026-04-26 06:37 37.44356 120.72797 39014 ft 447 kts
2026-04-26 06:37 37.50494 120.73952 39016 ft 447 kts
2026-04-26 06:38 37.56626 120.75112 39016 ft 447 kts
2026-04-26 06:38 37.62810 120.76006 39017 ft 445 kts 359°
2026-04-26 06:39 37.68931 120.76730 39018 ft 444 kts 358°
2026-04-26 06:39 37.75120 120.77461 39017 ft 445 kts 358°
2026-04-26 06:40 37.81264 120.78194 39017 ft 444 kts 358°
2026-04-26 06:40 37.87405 120.78928 39022 ft 444 kts 358°
2026-04-26 06:41 37.93542 120.79829 39027 ft 448 kts
2026-04-26 06:41 37.99660 120.81673 39030 ft 456 kts 10°
2026-04-26 06:42 38.05619 120.84581 39036 ft 463 kts 18°
2026-04-26 06:42 38.11346 120.88513 39031 ft 469 kts 23°
2026-04-26 06:43 38.16950 120.92794 39037 ft 472 kts 26°
2026-04-26 06:43 38.22133 120.98027 39039 ft 483 kts 38°
2026-04-26 06:44 38.26492 121.04615 39035 ft 494 kts 50°
2026-04-26 06:44 38.29810 121.12373 39044 ft 503 kts 60°
2026-04-26 06:45 38.32580 121.20493 39035 ft 502 kts 62°
2026-04-26 06:45 38.35370 121.28682 39027 ft 502 kts 61°
2026-04-26 06:46 38.38169 121.36792 39040 ft 502 kts 61°
2026-04-26 06:46 38.40986 121.44929 39018 ft 501 kts 60°
2026-04-26 06:47 38.44068 121.52834 39030 ft 500 kts 57°
2026-04-26 06:47 38.47251 121.60744 39024 ft 499 kts 57°
2026-04-26 06:48 38.50404 121.68610 39019 ft 500 kts 58°
2026-04-26 06:48 38.53558 121.76521 39029 ft 500 kts 58°
2026-04-26 06:49 38.56688 121.84400 39019 ft 501 kts 58°
2026-04-26 06:49 38.59840 121.92358 38992 ft 500 kts 58°
2026-04-26 06:50 38.62972 122.00283 38998 ft 501 kts 58°
2026-04-26 06:50 38.66254 122.08103 39002 ft 496 kts 52°
2026-04-26 06:51 38.70406 122.15036 39007 ft 487 kts 41°
2026-04-26 06:51 38.75355 122.20759 39008 ft 477 kts 30°
2026-04-26 06:51 38.78098 122.23169 39020 ft 473 kts 25°
2026-04-26 06:52 38.83708 122.27546 39008 ft 472 kts 24°
2026-04-26 06:52 38.89311 122.31911 39004 ft 472 kts 25°
2026-04-26 06:53 38.94887 122.36320 39011 ft 473 kts 25°
2026-04-26 06:53 39.00465 122.40753 39011 ft 473 kts 25°
2026-04-26 06:54 39.06090 122.45228 39013 ft 473 kts 25°
2026-04-26 06:54 39.11693 122.49694 39017 ft 474 kts 25°
2026-04-26 06:55 39.17271 122.54150 39018 ft 473 kts 25°
2026-04-26 06:55 39.22860 122.58625 39014 ft 474 kts 25°
2026-04-26 06:56 39.28490 122.62985 39009 ft 471 kts 22°
2026-04-26 06:56 39.34246 122.67091 39008 ft 471 kts 22°
2026-04-26 06:57 39.39975 122.71159 39005 ft 472 kts 22°
2026-04-26 06:57 39.45741 122.75272 39009 ft 473 kts 22°
2026-04-26 06:58 39.51490 122.79385 38998 ft 473 kts 23°
2026-04-26 06:58 39.57237 122.83508 38992 ft 473 kts 23°
2026-04-26 06:59 39.62994 122.87645 38994 ft 473 kts 22°
2026-04-26 06:59 39.68745 122.91785 38990 ft 473 kts 23°
2026-04-26 07:00 39.74501 122.95937 38996 ft 474 kts 23°
2026-04-26 07:00 39.80262 123.00103 38983 ft 474 kts 23°
2026-04-26 07:01 39.86028 123.04277 38986 ft 474 kts 23°
2026-04-26 07:01 39.91809 123.08473 38994 ft 474 kts 23°
2026-04-26 07:02 39.97561 123.12655 38994 ft 474 kts 23°
2026-04-26 07:02 40.03348 123.16870 39006 ft 475 kts 23°
2026-04-26 07:03 40.09106 123.21037 39010 ft 474 kts 22°
2026-04-26 07:03 40.14890 123.25194 39005 ft 475 kts 22°
2026-04-26 07:04 40.20671 123.29363 39013 ft 476 kts 22°
2026-04-26 07:04 40.26467 123.33554 39015 ft 475 kts 22°
2026-04-26 07:05 40.32263 123.37752 39018 ft 475 kts 22°
2026-04-26 07:05 40.38050 123.41952 39015 ft 476 kts 22°
2026-04-26 07:06 40.43865 123.46184 39026 ft 476 kts 22°
2026-04-26 07:06 40.49650 123.50401 39024 ft 477 kts 22°
2026-04-26 07:07 40.55492 123.54668 39034 ft 478 kts 22°
2026-04-26 07:07 40.61298 123.58915 39030 ft 479 kts 22°
2026-04-26 07:08 40.67134 123.63186 39031 ft 479 kts 22°
2026-04-26 07:08 40.72932 123.67441 39025 ft 479 kts 23°
2026-04-26 07:09 40.78760 123.71725 39028 ft 481 kts 23°
2026-04-26 07:09 40.84649 123.76051 39025 ft 481 kts 23°
2026-04-26 07:10 40.93469 123.82340 38378 ft 482 kts 22°
2026-04-26 07:11 40.99419 123.86586 37888 ft 482 kts 22°
2026-04-26 07:11 41.02356 123.88690 37613 ft 482 kts 22°
2026-04-26 07:11 41.05323 123.90818 37325 ft 482 kts 21°
2026-04-26 07:11 41.08287 123.92945 37040 ft 483 kts 22°
2026-04-26 07:12 41.11229 123.95059 36802 ft 482 kts 22°
2026-04-26 07:12 41.14152 123.97163 36535 ft 482 kts 21°
2026-04-26 07:12 41.17097 123.99284 36299 ft 483 kts 21°
2026-04-26 07:12 41.20066 124.01425 36088 ft 484 kts 21°
2026-04-26 07:13 41.23055 124.03583 35867 ft 484 kts 21°
2026-04-26 07:13 41.26000 124.05708 35655 ft 484 kts 21°
2026-04-26 07:13 41.28978 124.07864 35438 ft 485 kts 21°
2026-04-26 07:13 41.31920 124.09995 35218 ft 484 kts 21°
2026-04-26 07:14 41.34882 124.12141 35043 ft 485 kts 21°
2026-04-26 07:14 41.40826 124.16455 35024 ft 486 kts 21°
2026-04-26 07:15 41.46714 124.20852 35038 ft 486 kts 22°
2026-04-26 07:15 41.52585 124.25286 35025 ft 486 kts 22°
2026-04-26 07:16 41.58485 124.29742 35033 ft 487 kts 22°
2026-04-26 07:16 41.64395 124.34211 35028 ft 488 kts 22°
2026-04-26 07:17 41.70276 124.38667 35043 ft 487 kts 22°
2026-04-26 07:17 41.76208 124.43168 35033 ft 489 kts 22°
2026-04-26 07:18 41.82075 124.47633 35032 ft 488 kts 22°
2026-04-26 07:18 41.88003 124.52151 35042 ft 489 kts 22°
2026-04-26 07:19 41.93938 124.56686 35033 ft 489 kts 22°
2026-04-26 07:19 41.99845 124.61083 35051 ft 487 kts 20°
2026-04-26 07:20 42.05925 124.65250 35032 ft 487 kts 20°
2026-04-26 07:20 42.11969 124.69371 35038 ft 488 kts 20°
2026-04-26 07:21 42.18018 124.73518 35042 ft 487 kts 20°
2026-04-26 07:21 42.24086 124.77693 35022 ft 488 kts 20°
2026-04-26 07:22 42.30119 124.81856 35030 ft 488 kts 21°
2026-04-26 07:22 42.36153 124.86030 35029 ft 488 kts 20°
2026-04-26 07:23 42.42207 124.90227 35013 ft 487 kts 20°
2026-04-26 07:23 42.48232 124.94408 34995 ft 488 kts 21°
2026-04-26 07:24 42.54282 124.98618 35021 ft 487 kts 21°
2026-04-26 07:24 42.60288 125.02808 35028 ft 489 kts 21°
2026-04-26 07:25 42.66350 125.07045 35001 ft 489 kts 21°
2026-04-26 07:25 42.72373 125.11267 35141 ft 489 kts 21°
2026-04-26 07:26 42.78393 125.15496 35058 ft 488 kts 21°
2026-04-26 07:26 42.84431 125.19732 35009 ft 489 kts 21°
2026-04-26 07:27 42.90499 125.23937 35021 ft 488 kts 21°
2026-04-26 07:27 42.96545 125.28131 35020 ft 488 kts 21°
2026-04-26 07:28 43.02608 125.32349 35017 ft 488 kts 21°
2026-04-26 07:28 43.08640 125.36556 35023 ft 488 kts 21°
2026-04-26 07:29 43.14694 125.40791 35016 ft 488 kts 21°
2026-04-26 07:29 43.20757 125.45042 35017 ft 489 kts 21°
2026-04-26 07:30 43.26794 125.49285 34712 ft 481 kts 21°
2026-04-26 07:30 43.29729 125.51356 34512 ft 477 kts 21°
2026-04-26 07:30 43.32697 125.53446 34286 ft 478 kts 21°
2026-04-26 07:30 43.35670 125.55540 34076 ft 478 kts 21°
2026-04-26 07:31 43.38613 125.57617 33891 ft 478 kts 21°
2026-04-26 07:31 43.41582 125.59715 33691 ft 479 kts 21°
2026-04-26 07:31 43.44570 125.61826 33506 ft 479 kts 21°
2026-04-26 07:31 43.47518 125.63915 33327 ft 478 kts 21°
2026-04-26 07:32 43.50492 125.66026 33126 ft 477 kts 22°
2026-04-26 07:32 43.53412 125.68102 32930 ft 475 kts 22°
2026-04-26 07:32 43.56350 125.70189 32682 ft 473 kts 21°
2026-04-26 07:32 43.59287 125.72280 32361 ft 470 kts 21°
2026-04-26 07:33 43.62164 125.74330 32039 ft 469 kts 21°
2026-04-26 07:33 43.65075 125.76406 31706 ft 466 kts 21°
2026-04-26 07:33 43.67948 125.78458 31378 ft 464 kts 21°
2026-04-26 07:33 43.70800 125.80495 31049 ft 462 kts 21°
2026-04-26 07:34 43.73695 125.82387 30709 ft 456 kts 17°
2026-04-26 07:34 43.76648 125.83985 30354 ft 451 kts 13°
2026-04-26 07:34 43.79607 125.85266 29999 ft 445 kts
2026-04-26 07:34 43.82620 125.86259 29669 ft 440 kts
2026-04-26 07:35 43.85595 125.86964 29446 ft 435 kts
2026-04-26 07:35 43.88576 125.87565 29228 ft 433 kts
2026-04-26 07:35 43.91574 125.88197 28953 ft 434 kts
2026-04-26 07:35 43.94487 125.89419 28589 ft 441 kts 16°
2026-04-26 07:36 43.97233 125.91382 28203 ft 446 kts 27°
2026-04-26 07:36 43.99730 125.93943 27826 ft 447 kts 34°
2026-04-26 07:36 44.02117 125.96669 27449 ft 445 kts 35°
2026-04-26 07:36 44.04501 125.99424 27084 ft 441 kts 34°
2026-04-26 07:37 44.06963 126.01882 26705 ft 431 kts 24°
2026-04-26 07:37 44.09664 126.03574 26278 ft 420 kts 12°
2026-04-26 07:37 44.12463 126.04491 25880 ft 410 kts
2026-04-26 07:37 44.15286 126.05100 25526 ft 405 kts
2026-04-26 07:38 44.18048 126.05657 25169 ft 401 kts
2026-04-26 07:38 44.20806 126.06223 24793 ft 398 kts
2026-04-26 07:38 44.23520 126.06795 24467 ft 394 kts
2026-04-26 07:38 44.26242 126.07383 24161 ft 390 kts
2026-04-26 07:39 44.28907 126.07968 23847 ft 386 kts
2026-04-26 07:39 44.31537 126.08549 23519 ft 382 kts
2026-04-26 07:39 44.34177 126.09134 23156 ft 379 kts
2026-04-26 07:39 44.36752 126.09702 22805 ft 377 kts
2026-04-26 07:40 44.39372 126.10281 22477 ft 373 kts
2026-04-26 07:40 44.41908 126.10841 22154 ft 370 kts
2026-04-26 07:40 44.44462 126.11404 21808 ft 368 kts
2026-04-26 07:40 44.47001 126.11962 21466 ft 365 kts
2026-04-26 07:41 44.49514 126.12516 21137 ft 363 kts
2026-04-26 07:41 44.52006 126.13067 20820 ft 360 kts
2026-04-26 07:41 44.54467 126.13617 20502 ft 357 kts
2026-04-26 07:41 44.56926 126.14167 20162 ft 355 kts
2026-04-26 07:42 44.59367 126.14711 19773 ft 363 kts
2026-04-26 07:42 44.61909 126.15273 19242 ft 368 kts
2026-04-26 07:42 44.64414 126.15834 18717 ft 369 kts
2026-04-26 07:42 44.66952 126.16406 18195 ft 370 kts
2026-04-26 07:43 44.69501 126.16979 17673 ft 371 kts
2026-04-26 07:43 44.72065 126.17493 17143 ft 369 kts
2026-04-26 07:43 44.74608 126.17793 16623 ft 368 kts 359°
2026-04-26 07:43 44.77156 126.18029 16098 ft 368 kts 359°
2026-04-26 07:44 44.79742 126.18256 15568 ft 367 kts 359°
2026-04-26 07:44 44.82297 126.18480 15053 ft 367 kts 359°
2026-04-26 07:44 44.84824 126.18705 14536 ft 366 kts 359°
2026-04-26 07:44 44.87369 126.18936 14017 ft 366 kts 359°
2026-04-26 07:45 44.89897 126.19165 13507 ft 365 kts 359°
2026-04-26 07:45 44.92446 126.19396 12994 ft 364 kts 360°
2026-04-26 07:45 44.94953 126.19624 12519 ft 362 kts
2026-04-26 07:45 44.97480 126.19855 12083 ft 359 kts
2026-04-26 07:46 44.99934 126.20081 11649 ft 355 kts
2026-04-26 07:46 45.02392 126.20306 11215 ft 352 kts
2026-04-26 07:46 45.04845 126.20531 10862 ft 346 kts
2026-04-26 07:46 45.07199 126.20750 10813 ft 332 kts
2026-04-26 07:47 45.09448 126.20961 10813 ft 317 kts
2026-04-26 07:47 45.11619 126.21163 10807 ft 303 kts
2026-04-26 07:47 45.13694 126.21357 10810 ft 290 kts
2026-04-26 07:47 45.15663 126.21538 10810 ft 278 kts
2026-04-26 07:48 45.17566 126.21714 10797 ft 267 kts 360°
2026-04-26 07:48 45.19410 126.21882 10589 ft 264 kts 360°
2026-04-26 07:48 45.21240 126.22045 10336 ft 263 kts
2026-04-26 07:48 45.23080 126.22212 10084 ft 262 kts
2026-04-26 07:49 45.24888 126.22375 9827 ft 261 kts
2026-04-26 07:49 45.26688 126.22541 9571 ft 260 kts
2026-04-26 07:49 45.28496 126.22708 9311 ft 259 kts
2026-04-26 07:50 45.32095 126.23041 8950 ft 259 kts
2026-04-26 07:50 45.33886 126.23206 8914 ft 260 kts
2026-04-26 07:50 45.35703 126.23374 8912 ft 261 kts
2026-04-26 07:50 45.37524 126.23543 8908 ft 261 kts
2026-04-26 07:51 45.39327 126.23711 8906 ft 254 kts
2026-04-26 07:51 45.41066 126.23875 8907 ft 243 kts
2026-04-26 07:51 45.42706 126.24030 8909 ft 236 kts
2026-04-26 07:51 45.44363 126.24182 8911 ft 238 kts
2026-04-26 07:52 45.46016 126.24445 8902 ft 241 kts 12°
2026-04-26 07:52 45.47551 126.25474 8802 ft 248 kts 32°
2026-04-26 07:52 45.48912 126.27017 8620 ft 248 kts 36°
2026-04-26 07:52 45.50242 126.28614 8284 ft 252 kts 36°
2026-04-26 07:53 45.51588 126.30227 7928 ft 256 kts 36°
2026-04-26 07:53 45.52967 126.31864 7567 ft 261 kts 36°
2026-04-26 07:53 45.54383 126.33534 7214 ft 265 kts 36°
2026-04-26 07:53 45.55815 126.35219 6865 ft 268 kts 36°
2026-04-26 07:54 45.57270 126.36929 6540 ft 270 kts 36°
2026-04-26 07:54 45.58720 126.38631 6242 ft 270 kts 36°
2026-04-26 07:54 45.60158 126.40324 5974 ft 265 kts 36°
2026-04-26 07:54 45.61588 126.42008 5571 ft 266 kts 36°
2026-04-26 07:55 45.63009 126.43682 5140 ft 265 kts 36°
2026-04-26 07:55 45.64426 126.45354 4763 ft 262 kts 36°
2026-04-26 07:55 45.65821 126.46999 4389 ft 259 kts 36°
2026-04-26 07:55 45.67204 126.48629 4014 ft 256 kts 36°
2026-04-26 07:56 45.68564 126.50234 3640 ft 254 kts 35°
2026-04-26 07:56 45.70055 126.51534 3272 ft 243 kts
2026-04-26 07:56 45.71646 126.51321 3102 ft 224 kts 329°
2026-04-26 07:56 45.72720 126.49799 3015 ft 215 kts 303°
2026-04-26 07:57 45.73495 126.48030 3006 ft 206 kts 302°
2026-04-26 07:57 45.74272 126.46367 2995 ft 195 kts 304°
2026-04-26 07:57 45.75047 126.44847 2992 ft 184 kts 306°
2026-04-26 07:57 45.75709 126.43347 2975 ft 173 kts 284°
2026-04-26 07:58 45.75604 126.41684 2985 ft 171 kts 250°
2026-04-26 07:58 45.74983 126.40247 3008 ft 168 kts 235°
2026-04-26 07:58 45.74179 126.39043 3012 ft 164 kts 229°
2026-04-26 07:58 45.73361 126.37979 2978 ft 153 kts 226°
2026-04-26 07:59 45.72557 126.37000 2802 ft 149 kts 226°
2026-04-26 07:59 45.71769 126.36066 2594 ft 143 kts 225°
2026-04-26 07:59 45.70999 126.35165 2398 ft 139 kts 226°
2026-04-26 07:59 45.70240 126.34274 2222 ft 143 kts 226°
2026-04-26 08:00 45.69464 126.33365 2043 ft 146 kts 226°
2026-04-26 08:00 45.68656 126.32416 1855 ft 154 kts 225°
2026-04-26 08:00 45.67821 126.31442 1642 ft 153 kts 225°
2026-04-26 08:00 45.66991 126.30473 1423 ft 154 kts 224°
2026-04-26 08:01 45.66172 126.29514 1215 ft 151 kts 225°
2026-04-26 08:01 45.65346 126.28544 1021 ft 153 kts 224°
2026-04-26 08:01 45.64519 126.27575 819 ft 152 kts 224°
2026-04-26 08:01 45.63707 126.26623 630 ft 149 kts 224°
2026-04-26 08:02 45.62926 126.25707 518 ft 140 kts 223°
2026-04-26 08:02 45.62260 126.24919 517 ft 97 kts 219°
2026-04-26 08:02 45.61919 126.24523 517 ft 43 kts 219°
2026-04-26 08:02 45.61789 126.24369 517 ft 9 kts 219°
2026-04-26 08:03 45.61751 126.24292 517 ft 10 kts 259°
2026-04-26 08:03 45.61742 126.24195 517 ft 7 kts 263°
2026-04-26 08:03 45.61745 126.24134 517 ft 6 kts 288°
2026-04-26 08:03 45.61765 126.24078 517 ft 5 kts 287°
2026-04-26 08:04 45.61755 126.24023 517 ft 6 kts 231°
2026-04-26 08:04 45.61714 126.23969 517 ft 8 kts 219°
2026-04-26 08:04 45.61662 126.23909 517 ft 10 kts 219°
2026-04-26 08:04 45.61603 126.23840 517 ft 11 kts 219°
2026-04-26 08:05 45.61538 126.23763 517 ft 12 kts 219°
2026-04-26 08:05 45.61466 126.23679 517 ft 13 kts 219°
2026-04-26 08:05 45.61389 126.23590 517 ft 14 kts 219°
2026-04-26 08:05 45.61332 126.23523 517 ft 2 kts 219°
2026-04-26 08:06 45.61328 126.23501 517 ft 3 kts 269°
2026-04-26 08:06 45.61339 126.23458 517 ft 5 kts 302°
2026-04-26 08:06 45.61367 126.23407 517 ft 6 kts 309°
2026-04-26 08:06 45.61387 126.23372 517 ft 0 kts 309°
2026-04-26 08:07 45.61391 126.23364 517 ft 2 kts 309°
2026-04-26 08:07 45.61406 126.23341 517 ft 2 kts 311°
2026-04-26 08:07 45.61427 126.23327 517 ft 4 kts 355°
2026-04-26 08:07 45.61453 126.23326 517 ft 3 kts 359°
2026-04-26 08:08 45.61479 126.23326 517 ft 3 kts 359°
2026-04-26 08:08 45.61499 126.23326 517 ft 3 kts 359°
2026-04-26 08:08 45.61512 126.23325 517 ft 1 kts 359°
2026-04-26 08:08 45.61518 126.23325 517 ft 0 kts 359°
2026-04-26 08:09 45.61523 126.23325 517 ft 0 kts 359°
2026-04-26 08:09 45.61525 126.23325 517 ft 0 kts 359°